DW9907 Weather Reports


time (UTC)temp
C
wind
direction
speed
KPH
gust
KPH
rain 1hr
cm
rain 24hr
cm
rain mn
cm
humidity
%
barometer
mb
20260906200034 34 185 22.5 35.4 0.00 0.03 0.00 36 1014.1
20260906194534 33 185 22.5 32.2 0.00 0.03 0.00 38 1014.4
20260906193040 33 185 19.3 33.8 0.00 0.03 0.00 37 1014.7
20260906191534 32 180 14.5 22.5 0.00 0.03 0.00 43 1014.8
20260906190036 32 185 11.3 20.9 0.00 0.03 0.00 47 1015.1
20260906184535 31 185 6.4 16.1 0.00 0.03 0.00 47 1015.3
20260906183033 32 185 8.0 16.1 0.00 0.03 0.00 46 1015.6
20260906181544 31 185 4.8 12.9 0.00 0.03 0.00 48 1015.9
20260906180040 30 185 3.2 8.0 0.00 0.03 0.00 50 1016.3
20260906174532 29 185 0.0 4.8 0.00 0.03 0.00 54 1016.7
20260906173033 29 185 1.6 6.4 0.00 0.03 0.00 53 1017.2
20260906171534 29 185 4.8 9.7 0.00 0.03 0.00 51 1017.5
20260906170033 29 0 3.2 14.5 0.00 0.03 0.00 50 1017.6
20260906164535 29 185 8.0 19.3 0.00 0.03 0.00 52 1017.6
20260906163046 29 185 16.1 24.1 0.00 0.03 0.00 52 1017.4
20260906161542 30 185 16.1 24.1 0.00 0.03 0.00 51 1017.5
20260906160037 29 185 14.5 24.1 0.00 0.03 0.00 53 1017.3
20260906154537 29 185 14.5 24.1 0.00 0.03 0.00 54 1017.3
20260906153034 28 185 6.4 14.5 0.00 0.03 0.00 57 1017.2
20260906151538 28 185 9.7 19.3 0.00 0.03 0.00 56 1017.2
20260906150035 27 185 6.4 12.9 0.00 0.03 0.00 61 1017.3
20260906144539 27 185 8.0 14.5 0.00 0.03 0.00 63 1017.1
20260906143037 26 185 11.3 14.5 0.00 0.03 0.00 65 1016.8
20260906141533 24 185 9.7 14.5 0.00 0.03 0.00 69 1016.6
20260906140037 23 180 8.0 16.1 0.00 0.03 0.00 73 1016.4
20260906134538 23 185 6.4 12.9 0.00 0.03 0.00 75 1016.4
20260906133045 22 185 9.7 16.1 0.00 0.03 0.00 74 1016.1
20260906131537 22 185 12.9 16.1 0.00 0.03 0.00 77 1016.0
20260906130037 21 180 8.0 14.5 0.00 0.03 0.00 78 1015.7
20260906124534 21 185 9.7 16.1 0.00 0.03 0.00 78 1015.4
20260906123040 21 185 9.7 14.5 0.00 0.03 0.00 78 1015.3
20260906121544 21 185 9.7 14.5 0.00 0.03 0.00 77 1015.3
20260906120036 21 185 9.7 14.5 0.00 0.03 0.00 77 1015.0
20260906114538 21 180 8.0 14.5 0.00 0.03 0.00 76 1014.8
20260906113034 21 185 11.3 16.1 0.00 0.03 0.00 76 1014.6
20260906111532 22 185 9.7 16.1 0.00 0.03 0.00 75 1014.5
20260906110035 22 185 9.7 14.5 0.00 0.03 0.00 73 1014.6
20260906104535 22 185 8.0 12.9 0.00 0.03 0.00 70 1014.7
20260906103033 23 185 6.4 12.9 0.00 0.03 0.00 67 1014.8
20260906101536 23 185 6.4 12.9 0.00 0.03 0.00 65 1014.7
20260906100039 24 185 6.4 8.0 0.00 0.03 0.00 63 1014.6
20260906094534 25 185 4.8 14.5 0.00 0.03 0.00 62 1014.7
20260906093047 25 180 8.0 14.5 0.00 0.03 0.00 59 1014.8
20260906091532 25 180 6.4 14.5 0.00 0.03 0.00 59 1014.8
20260906090036 25 185 11.3 17.7 0.00 0.03 0.00 57 1014.5
20260906084534 25 185 11.3 19.3 0.00 0.03 0.00 57 1014.8
20260906083036 25 180 14.5 20.9 0.00 0.03 0.00 57 1014.6
20260906081547 25 180 14.5 20.9 0.00 0.03 0.00 59 1014.5
20260906080036 25 185 11.3 19.3 0.00 0.03 0.00 60 1014.4
20260906074536 26 185 6.4 22.5 0.00 0.03 0.00 60 1014.6
20260906073048 26 180 11.3 20.9 0.00 0.03 0.00 59 1014.5
20260906071533 25 185 14.5 22.5 0.00 0.03 0.00 60 1014.4
20260906070039 25 180 11.3 24.1 0.00 0.03 0.00 64 1014.4
20260906064533 25 185 11.3 19.3 0.00 0.03 0.00 63 1014.4
20260906063034 24 185 12.9 19.3 0.00 0.03 0.00 69 1014.5
20260906061535 24 185 16.1 22.5 0.00 0.03 0.00 68 1014.5
20260906060038 23 185 14.5 22.5 0.00 0.03 0.00 72 1014.3
20260906054537 23 185 12.9 20.9 0.00 0.03 0.00 73 1014.4
20260906053038 23 180 16.1 19.3 0.00 0.03 0.00 74 1014.4
20260906051535 24 180 16.1 20.9 0.00 0.03 0.00 73 1014.3
20260906050048 24 180 19.3 25.7 0.00 0.03 0.00 71 1014.1
20260906044536 24 185 20.9 25.7 0.00 0.03 0.03 71 1013.9
20260906043044 24 180 19.3 24.1 0.00 0.03 0.03 72 1014.0
20260906041537 24 185 17.7 20.9 0.00 0.03 0.03 72 1014.3
20260906040045 23 185 8.0 12.9 0.00 0.03 0.03 73 1014.3
20260906034534 23 185 4.8 12.9 0.00 0.03 0.03 73 1014.3
20260906033034 24 185 6.4 16.1 0.00 0.03 0.03 73 1014.1
20260906031534 23 185 8.0 19.3 0.00 0.03 0.03 75 1014.1
20260906030033 23 185 14.5 19.3 0.00 0.03 0.03 76 1013.6
20260906024537 23 185 19.3 24.1 0.00 0.03 0.03 76 1013.2
20260906023037 23 185 16.1 20.9 0.00 0.03 0.03 75 1013.0
20260906021535 23 185 12.9 19.3 0.00 0.03 0.03 77 1013.1
20260906020032 23 185 14.5 25.7 0.00 0.03 0.03 77 1012.9
20260906014543 23 185 24.1 35.4 0.00 0.03 0.03 77 1012.7
20260906013034 23 185 29.0 38.6 0.00 0.03 0.03 78 1012.8
20260906011544 23 185 30.6 38.6 0.00 0.03 0.03 79 1012.7
20260906010034 23 185 32.2 43.5 0.00 0.03 0.03 78 1013.1
20260906004533 24 185 33.8 45.1 0.00 0.03 0.03 77 1013.1
20260906003035 23 185 37.0 48.3 0.00 0.03 0.03 79 1012.9
20260906001534 22 185 29.0 40.2 0.03 0.03 0.03 86 1013.1
20260906000038 22 185 25.7 40.2 0.03 0.03 0.03 85 1013.6
20260905234550 22 185 24.1 38.6 0.03 0.03 0.03 82 1013.4
20260905233035 25 185 25.7 53.1 0.03 0.03 0.03 74 1013.3
20260905231538 27 185 30.6 51.5 0.00 0.00 0.00 62 1012.9
20260905230041 30 185 25.7 35.4 0.00 0.00 0.00 53 1012.7
20260905224538 34 185 30.6 38.6 0.00 0.00 0.00 40 1012.2
20260905223038 36 185 29.0 45.1 0.00 0.00 0.00 33 1011.8
20260905221536 36 180 32.2 41.8 0.00 0.00 0.00 32 1011.5
20260905220035 37 185 16.1 33.8 0.00 0.00 0.00 31 1011.6
20260905214534 36 185 12.9 19.3 0.00 0.00 0.00 31 1011.7
20260905213037 36 180 12.9 29.0 0.00 0.00 0.00 33 1011.7
20260905211609 36 180 17.7 30.6 0.00 0.00 0.00 33 1011.8
20260905210034 36 185 17.7 40.2 0.00 0.00 0.00 32 1012.2
20260905204535 36 180 16.1 25.7 0.00 0.00 0.00 33 1012.2
20260905203037 36 185 9.7 30.6 0.00 0.00 0.00 32 1012.6
20260905201537 37 185 17.7 37.0 0.00 0.00 0.00 31 1012.9